Home   Weather   Vestby   Past weeks

Flag for Norway Past Weather in Vestby, Norway — Yesterday and Last 2 Weeks

41 °F


Feels Like: 34 °F
Forecast: 40 / 44 °F
Wind: 12 mph from Northeast

Location: Rygge

Current Time: Oct 23, 2016 at 8:11:03 PM

Latest Report: Oct 23, 2016 at 7:20 PM

Visibility: N/A

Pressure: 30.21 "Hg

Humidity: 87%

Dew Point: 37 °F

Location of VestbyLocation

Past Weather in Vestby — Graph


Vestby Temperature Yesterday

Maximum temperature yesterday: 41 °F (at 12:20 AM)
Minimum temperature yesterday: 36 °F (at 5:50 PM)
Average temperature yesterday: 39 °F

High & Low Weather Summary for the Past Weeks

High48 °F (Oct 10, 4:20 PM)100% (Oct 16, 6:20 PM)30.60 "Hg (Oct 16, 6:20 PM)
Low34 °F (Oct 14, 6:50 AM)54% (Oct 10, 4:50 PM)30.09 "Hg (Oct 18, 5:20 PM)
Average42 °F83%30.39 "Hg
* Reported Oct 8 6:20 PM — Oct 23 6:50 PM, Vestby, Weather by CustomWeather, © 2016

Note: Actual official high and low records may vary slightly from our data, if they occured in-between our weather recording intervals... More about our weather records


Vestby Weather History for the Previous 24 Hours

Scroll right to see more
Time TempWeatherWind HumidityBarometerVisibility
6:50 PM
Sun, Oct 23
41 °FMostly cloudy.12 mph87%30.21 "HgN/A
6:20 PM41 °FMostly cloudy.12 mph87%30.21 "HgN/A
5:50 PM41 °FMostly cloudy.12 mph87%30.21 "HgN/A
5:20 PM41 °FPartly sunny.14 mph87%30.21 "HgN/A
4:50 PM41 °FPartly sunny.10 mph87%30.21 "HgN/A
4:20 PM41 °FPartly sunny.12 mph87%30.21 "HgN/A
3:50 PM41 °FBroken clouds.12 mph87%30.21 "HgN/A
3:20 PM41 °FPartly sunny.12 mph87%30.21 "HgN/A
2:50 PM39 °FPartly sunny.12 mph93%30.21 "HgN/A
1:50 PM39 °FOvercast.13 mph87%30.24 "HgN/A
1:20 PM39 °FOvercast.14 mph87%30.24 "HgN/A
12:50 PM39 °FMore clouds than sun.15 mph87%30.24 "HgN/A
12:20 PM39 °FLight rain. Partly sunny.15 mph87%30.24 "HgN/A
11:50 AM39 °FLight rain. Broken clouds.14 mph87%30.24 "HgN/A
11:20 AM37 °FDrizzle. More clouds than sun.14 mph93%30.24 "HgN/A
10:20 AM37 °FDrizzle. Broken clouds.12 mph93%30.27 "HgN/A
9:50 AM37 °FDrizzle. Mostly cloudy.12 mph93%30.27 "HgN/A
9:20 AM37 °FDrizzle. Partly sunny.13 mph93%30.27 "HgN/A
8:50 AM37 °FDrizzle. Partly sunny.10 mph93%30.27 "HgN/A
8:20 AM37 °FDrizzle. Broken clouds.10 mph93%30.27 "HgN/A
7:50 AM37 °FOvercast.9 mph93%30.27 "HgN/A
7:20 AM36 °FOvercast.12 mph100%30.27 "HgN/A
6:50 AM36 °FPassing clouds.12 mph93%30.27 "HgN/A
6:20 AM36 °FLight rain. Passing clouds.12 mph93%30.27 "Hg4 mi
5:20 AM36 °FLight rain. Passing clouds.12 mph93%30.27 "HgN/A
4:50 AM36 °FDrizzle. Mostly cloudy.12 mph93%30.27 "HgN/A
4:20 AM36 °FDrizzle. Mostly cloudy.13 mph93%30.27 "HgN/A
3:50 AM36 °FPartly cloudy.10 mph93%30.27 "HgN/A
3:20 AM36 °FPartly cloudy.13 mph93%30.30 "HgN/A
2:50 AM36 °FPartly cloudy.12 mph93%30.30 "HgN/A
2:20 AM36 °FPassing clouds.12 mph93%30.30 "HgN/A
1:50 AM37 °FPassing clouds.13 mph87%30.30 "HgN/A
1:20 AM37 °FPassing clouds.13 mph87%30.30 "HgN/A
12:50 AM37 °FPartly cloudy.14 mph87%30.30 "HgN/A
12:20 AM37 °FOvercast.12 mph87%30.30 "HgN/A
11:50 PM
Sat, Oct 22
37 °FMostly cloudy.13 mph87%30.30 "HgN/A
11:20 PM37 °FOvercast.13 mph87%30.33 "HgN/A
10:50 PM37 °FMostly cloudy.13 mph87%30.33 "HgN/A
10:20 PM37 °FMostly cloudy.13 mph87%30.33 "HgN/A
9:50 PM37 °FMostly cloudy.12 mph87%30.33 "HgN/A
9:20 PM37 °FDrizzle. Mostly cloudy.13 mph87%30.30 "HgN/A
8:50 PM37 °FMostly cloudy.12 mph87%30.30 "HgN/A
8:20 PM37 °FMostly cloudy.10 mph87%30.30 "HgN/A
Weather by CustomWeather, © 2016

See weather overviewHow to use our weather pages